Total_Precipitation_Accumulation
0.12 0.25 0.43 0.53 0.87 1.43 1.46 1.19 0.74 0.50 0.50 0.58 0.56 0.56 0.71 0.86 1.19 2.20 2.30 2.05 1.40 1.26 1.50 1.47 1.46 1.28 1.17 1.18 1.23 1.17 1.06 0.99 1.07 1.12 1.19 1.29 1.41 1.40 1.36 1.48 1.69 1.86 1.97 2.09 2.23 2.25 2.24 2.07 1.82
0.14 0.23 0.37 0.49 1.05 1.58 1.42 1.11 0.65 0.52 0.43 0.51 0.59 0.53 0.73 0.83 0.85 1.38 1.79 1.61 1.04 0.92 1.11 1.09 1.17 1.14 1.02 0.90 0.95 1.04 0.97 0.98 1.08 1.21 1.34 1.47 1.63 1.64 1.64 1.69 1.77 1.91 1.95 1.98 2.05 2.02 1.92 1.78 1.63
0.13 0.18 0.33 0.47 0.94 1.15 1.00 0.75 0.44 0.38 0.31 0.36 0.50 0.45 0.68 1.06 0.96 1.22 1.42 1.20 0.88 0.81 0.88 0.99 0.91 0.84 0.85 0.81 0.81 0.93 1.00 1.04 1.04 1.16 1.31 1.50 1.79 1.85 1.92 1.97 2.04 2.04 1.91 1.81 1.78 1.75 1.59 1.47 1.42
0.10 0.18 0.23 0.34 0.60 0.65 0.51 0.47 0.33 0.31 0.29 0.29 0.41 0.57 0.91 0.97 0.91 1.05 1.06 0.94 0.70 0.68 0.71 0.73 0.79 0.76 0.78 0.84 0.82 0.85 0.95 1.03 1.07 1.15 1.33 1.51 1.80 2.00 2.15 2.10 2.09 2.03 1.79 1.66 1.57 1.51 1.34 1.25 1.29
0.10 0.13 0.22 0.28 0.36 0.46 0.41 0.36 0.29 0.30 0.28 0.34 0.45 0.82 1.30 1.17 0.87 0.85 0.85 0.78 0.65 0.59 0.66 0.68 0.73 0.75 0.75 0.77 0.85 0.90 0.89 1.03 1.08 1.08 1.23 1.44 1.66 1.99 2.08 2.02 1.93 1.76 1.64 1.56 1.49 1.40 1.25 1.21 1.20
0.10 0.08 0.17 0.20 0.26 0.33 0.34 0.28 0.27 0.25 0.28 0.40 0.57 0.88 1.31 1.27 1.08 1.02 1.03 0.91 0.85 0.67 0.58 0.67 0.76 0.77 0.72 0.68 0.77 0.85 0.91 1.03 1.10 1.10 1.17 1.36 1.55 1.76 1.79 1.73 1.62 1.49 1.51 1.49 1.44 1.36 1.26 1.17 1.19
0.08 0.06 0.10 0.12 0.17 0.23 0.26 0.23 0.23 0.24 0.33 0.50 0.67 1.02 1.29 1.48 1.32 1.16 1.28 1.35 1.14 0.89 0.76 0.74 0.72 0.66 0.65 0.69 0.74 0.87 1.03 1.17 1.22 1.20 1.27 1.48 1.57 1.61 1.49 1.51 1.47 1.43 1.42 1.43 1.34 1.21 1.13 1.04 1.08
0.04 0.05 0.08 0.08 0.10 0.19 0.18 0.19 0.18 0.23 0.37 0.46 0.63 1.05 1.38 1.31 1.30 1.32 1.49 1.62 1.53 1.17 1.03 0.89 0.83 0.80 0.69 0.67 0.80 0.93 1.09 1.28 1.37 1.37 1.49 1.68 1.69 1.58 1.56 1.47 1.46 1.46 1.51 1.48 1.36 1.14 1.03 0.98 1.04
0.03 0.04 0.06 0.06 0.07 0.13 0.12 0.16 0.19 0.18 0.23 0.41 0.59 0.88 0.99 0.94 1.08 1.29 1.50 1.69 1.87 1.62 1.28 1.09 0.96 0.97 0.94 0.81 0.83 1.04 1.19 1.35 1.45 1.66 1.83 2.01 1.98 1.76 1.85 1.67 1.76 1.73 1.74 1.71 1.59 1.38 1.25 1.15 1.11
0.02 0.03 0.04 0.03 0.04 0.05 0.09 0.13 0.18 0.17 0.36 0.63 0.76 0.86 0.79 0.93 1.04 1.29 1.47 1.60 1.75 1.83 1.40 1.26 1.09 1.00 0.98 1.07 1.35 1.51 1.36 1.55 1.85 2.14 2.29 2.52 2.41 2.25 1.86 2.02 2.22 2.35 2.50 2.43 2.26 2.10 1.75 1.41 1.28
0.01 0.03 0.03 0.03 0.02 0.03 0.08 0.09 0.14 0.19 0.51 0.98 1.13 1.15 1.06 1.01 1.15 1.43 1.69 1.77 1.64 1.70 1.47 1.38 1.38 1.36 1.22 1.34 1.57 1.74 1.76 1.96 2.14 2.23 2.37 2.54 2.23 2.12 2.12 2.29 2.55 2.72 2.82 2.68 2.68 2.64 2.24 2.05 2.02
0.01 0.01 0.02 0.02 0.02 0.03 0.07 0.09 0.13 0.22 0.51 0.80 1.08 1.05 1.20 1.18 1.27 1.53 1.87 2.05 2.05 2.16 1.92 1.75 1.77 1.70 1.60 1.56 1.75 1.88 1.89 1.99 2.16 2.30 2.25 2.34 2.45 2.49 2.57 2.79 2.74 2.87 2.99 3.25 2.90 3.01 2.80 2.55 2.41
0.01 0.01 0.02 0.02 0.03 0.04 0.08 0.16 0.16 0.26 0.38 0.58 0.83 0.84 0.91 1.22 1.59 1.98 2.37 2.37 2.50 2.70 2.66 2.38 2.12 1.97 1.94 2.07 2.09 1.99 2.07 2.18 2.30 2.48 2.43 2.38 2.61 2.74 2.80 2.81 2.94 2.73 2.78 3.12 3.23 3.01 3.19 3.20 2.96
0.01 0.01 0.02 0.03 0.03 0.06 0.09 0.22 0.28 0.37 0.46 0.52 0.77 1.01 1.06 1.41 1.75 2.33 2.99 2.90 2.70 2.90 2.97 2.75 2.58 2.44 2.42 2.58 2.66 2.55 2.36 2.56 2.63 2.62 2.49 2.53 2.76 3.07 3.20 3.08 3.14 2.95 2.79 2.95 3.08 3.09 3.68 3.55 3.38
0.02 0.03 0.04 0.07 0.08 0.11 0.17 0.38 0.52 0.52 0.49 0.58 0.88 1.19 1.43 1.58 1.91 2.27 2.66 3.00 3.15 3.25 3.16 3.10 3.06 2.98 3.01 3.01 2.97 2.78 2.71 2.62 2.71 2.79 2.82 2.80 2.82 3.15 3.28 3.37 3.31 3.12 2.94 3.07 3.10 3.31 3.56 3.33 3.18
0.02 0.06 0.10 0.12 0.13 0.14 0.23 0.62 0.62 0.52 0.53 0.84 1.04 1.37 1.69 1.76 2.02 2.42 2.79 3.32 3.57 3.61 3.59 3.58 3.41 3.45 3.50 3.49 3.39 3.19 3.07 2.92 2.76 2.73 2.87 2.90 2.97 3.20 3.39 3.26 3.14 3.23 3.22 3.36 3.55 3.62 3.63 3.53 3.39
0.07 0.10 0.15 0.15 0.17 0.15 0.21 0.46 0.60 0.55 0.75 1.02 1.26 1.58 1.88 2.14 2.59 3.07 3.33 3.45 3.79 4.12 4.29 4.31 4.23 4.02 3.81 3.77 3.75 3.78 3.76 3.52 3.20 3.06 3.07 3.07 2.93 3.04 3.31 3.27 3.31 3.35 3.38 3.42 3.15 3.62 3.62 3.67 3.50
0.09 0.10 0.14 0.18 0.16 0.18 0.26 0.42 0.52 0.60 0.84 1.25 1.63 1.87 2.14 2.54 3.05 3.40 3.66 4.02 4.15 4.42 4.92 4.90 4.71 4.60 4.53 4.44 4.21 4.22 4.00 3.71 3.59 3.50 3.60 3.40 3.22 3.15 3.39 3.35 3.43 3.43 3.51 3.53 3.50 3.76 3.67 3.49 3.41
0.08 0.10 0.15 0.19 0.16 0.21 0.36 0.55 0.59 0.77 1.07 1.38 1.73 1.97 2.31 2.63 3.01 3.43 3.53 3.80 4.11 4.71 5.17 5.41 5.42 5.23 4.95 4.58 4.21 4.05 3.97 3.92 3.77 3.63 3.43 3.30 3.22 3.29 3.62 3.48 3.76 3.66 3.45 3.38 3.45 3.71 3.56 3.28 3.32
0.08 0.11 0.16 0.19 0.16 0.20 0.37 0.57 0.67 1.01 1.33 1.39 1.57 1.71 1.90 2.34 2.67 3.00 3.21 3.31 3.72 4.30 4.73 4.89 4.66 4.56 4.40 4.18 4.09 4.06 4.25 3.97 3.74 3.64 3.46 3.17 3.11 3.22 3.26 3.55 3.45 3.46 3.55 3.43 3.42 3.66 3.47 3.04 3.15
0.05 0.08 0.13 0.19 0.18 0.26 0.39 0.74 0.95 1.16 1.29 1.33 1.43 1.58 1.70 1.98 2.30 2.62 2.77 2.93 3.17 3.27 3.52 3.68 3.85 3.80 3.69 3.69 3.67 3.70 3.94 3.76 3.60 3.51 3.42 3.04 2.86 2.83 2.95 3.05 3.14 3.47 3.39 3.44 3.50 3.43 3.35 3.06 2.96
0.07 0.07 0.07 0.11 0.19 0.32 0.47 1.02 1.28 1.24 1.28 1.41 1.40 1.39 1.64 1.94 1.93 2.05 2.30 2.48 2.75 2.91 3.08 3.12 3.15 3.29 3.33 3.42 3.34 3.17 3.11 3.08 3.05 3.14 3.09 3.01 2.84 2.73 2.75 2.81 2.87 2.98 2.90 3.05 2.80 2.94 3.18 3.29 2.99
0.06 0.05 0.07 0.15 0.23 0.34 0.46 0.79 1.21 1.54 1.60 1.41 1.35 1.24 1.44 1.59 1.50 1.49 1.68 1.83 2.10 2.31 2.54 2.67 2.77 2.87 3.00 3.06 3.02 3.00 2.80 2.80 2.86 2.93 2.95 2.91 2.86 2.81 2.78 2.77 2.78 2.69 2.55 2.67 2.68 2.89 2.89 2.90 2.87
0.05 0.07 0.14 0.27 0.45 0.68 0.58 0.71 1.14 1.49 1.74 1.48 1.28 1.19 1.29 1.28 1.25 1.37 1.50 1.61 1.78 2.05 2.23 2.35 2.47 2.53 2.64 2.69 2.77 2.77 2.72 2.71 2.73 2.74 2.75 2.75 2.76 2.66 2.61 2.58 2.61 2.53 2.49 2.55 2.63 2.74 2.66 2.68 2.82
0.06 0.14 0.48 0.85 1.13 1.14 0.74 0.79 1.15 1.16 1.19 1.22 1.17 1.22 1.23 1.17 1.13 1.14 1.23 1.37 1.56 1.78 1.93 1.97 2.08 2.17 2.19 2.24 2.34 2.42 2.50 2.59 2.46 2.38 2.42 2.43 2.29 2.20 2.27 2.22 2.34 2.34 2.35 2.37 2.49 2.56 2.51 2.64 2.78
0.11 0.16 0.53 0.82 0.87 0.96 0.84 1.11 1.45 1.15 1.07 1.00 1.08 1.18 1.18 1.04 0.97 1.00 1.10 1.16 1.24 1.43 1.65 1.68 1.77 1.90 2.05 2.08 2.14 2.24 2.25 2.27 2.12 2.14 2.16 2.14 1.95 1.88 2.05 2.18 2.23 2.20 2.17 2.20 2.45 2.30 2.32 2.50 2.54
0.16 0.18 0.24 0.46 0.53 0.73 0.95 1.23 1.40 1.09 1.06 1.17 1.30 1.28 1.23 0.98 0.83 0.85 0.86 0.91 0.92 1.03 1.20 1.33 1.58 1.74 1.84 1.92 2.01 2.02 1.97 2.04 1.97 1.97 2.09 2.06 2.04 1.90 1.97 2.00 2.09 2.12 2.21 2.32 2.44 2.29 2.41 2.65 2.54
0.15 0.16 0.19 0.37 0.58 0.79 0.92 1.28 1.58 1.53 1.36 1.30 1.37 1.22 0.95 0.79 0.68 0.63 0.64 0.65 0.73 0.82 0.94 1.10 1.31 1.42 1.52 1.70 1.82 1.73 1.90 1.97 1.95 1.91 1.81 1.85 1.94 1.91 1.78 1.75 1.81 1.84 1.92 2.10 2.26 2.19 2.36 2.62 2.58
0.19 0.21 0.29 0.40 0.45 0.68 1.04 1.25 1.19 1.24 1.17 1.23 1.22 1.04 0.80 0.65 0.60 0.61 0.61 0.64 0.71 0.75 0.89 1.08 1.30 1.44 1.44 1.54 1.65 1.70 1.80 1.89 1.89 1.80 1.71 1.74 1.79 1.79 1.70 1.69 1.70 1.69 1.66 1.75 1.92 1.94 2.18 2.24 2.24
0.17 0.19 0.28 0.42 0.42 0.46 0.72 0.95 0.68 0.73 0.75 0.83 0.88 0.77 0.69 0.66 0.62 0.68 0.74 0.74 0.75 0.82 0.94 1.10 1.25 1.42 1.48 1.59 1.77 1.91 1.85 1.79 1.79 1.77 1.68 1.61 1.54 1.60 1.67 1.74 1.65 1.52 1.56 1.70 1.73 1.81 2.05 2.14 2.12